Tracking 29892 objects as of 21-Nov-2024
HD Live streaming from Space Station
objects crossing your sky now

OBJECT C

Track OBJECT C now!
10-day predictions


NORAD ID: 56155
Int'l Code: 2023-047C
Perigee: 529.1 km
Apogee: 531.5 km
Inclination: 97.5 °
Period: 95.1 minutes
Semi major axis: 6901 km
RCS: Unknown
Launch date: March 30, 2023
Source: People's Republic of China (PRC)
Launch site: Taiyaun Space Center, China (TSC)
Your satellite tracking list
Your tracking list is empty




NASA's NSSDC Master Catalog

Two Line Element Set (TLE):
1 56155U 23047C   24325.58635833  .00012390  00000-0  68008-3 0  9995
2 56155  97.5015 149.9033 0001773  88.3325 271.8110 15.14280745 90991
Source of the keplerian elements: AFSPC